Location: Manzanita
(37.8816°N, 122.5175°W)
Time: 23:56:02
(UTC+00:00)

Daily predictions for brighter satellites

Satellite Brightness Start Highest point End
(mag) Time Altitude Azimuth Time Altitude Azimuth Time Altitude Azimuth
Lacrosse 5 2.7 12:30:27 46° ESE 12:30:27 46° ESE 12:34:10 10° SE
USA 234 3.8 12:25:58 10° NE 12:30:44 43° N 12:30:44 43° N
Aureole 1 Rocket 3.9 12:36:36 71° NNE 12:37:03 75° ENE 12:44:00 10° SSE
Centaur D AC-28 4.2 12:39:55 29° SSW 12:42:14 34° S 13:04:36 10° SE
Cosmos 1891 Rocket 4.5 12:35:58 10° S 12:42:25 86° E 12:48:49 10° N
CZ-4C R/B 3.7 12:40:06 27° N 12:44:09 50° NE 12:52:08 10° SE
Cosmos 1464 Rocket 3.8 12:41:29 10° S 12:47:42 86° W 12:53:54 10° N
Cosmos 2297 Rocket 4.4 12:53:35 12° N 12:53:35 12° N 12:53:58 10° N
Cosmos 2227 Rocket 4.3 12:57:11 13° N 12:57:11 13° N 12:57:56 10° N
H-2A R/B 3.4 12:53:31 18° SSE 12:53:33 18° SSE 12:57:13 10° ESE
STARLINK-50 4.4 12:55:29 48° ESE 12:55:29 48° ESE 12:58:29 10° SE
STARLINK-56 4.2 12:58:41 53° ESE 12:58:41 53° ESE 13:01:49 10° SE
COSMO-SKYMED 1 4.0 12:53:58 10° SE 12:57:56 37° ENE 13:01:03 15° N
Starlink (trailer) 4.1 13:00:19 55° ESE 13:00:19 55° ESE 13:03:31 10° SE
STARLINK-38 4.0 13:01:51 58° SE 13:01:51 58° SE 13:05:07 10° SE
STARLINK-65 3.9 13:03:26 60° SE 13:03:26 60° SE 13:06:46 10° SE
Okean O Rocket 3.8 13:00:53 10° NE 13:04:35 26° E 13:08:16 10° SSE
COBE Rocket 3.7 13:00:10 10° S 13:05:05 77° WSW 13:05:23 73° WNW
Cosmos 1072 Rocket 4.4 13:01:30 10° SSW 13:07:26 54° W 13:13:26 10° N
STARLINK-69 3.7 13:08:21 65° SSE 13:08:21 65° SSE 13:11:50 10° SE
STARLINK-66 3.7 13:09:49 68° SSE 13:09:49 68° SSE 13:13:23 10° SE
Cosmos 2242 Rocket 4.2 13:06:02 17° N 13:09:25 56° E 13:13:50 10° SSE
BREEZE-M DEB (TANK) 3.9 13:13:40 27° SSE 13:13:40 27° SSE 13:15:17 10° SE
Cosmos 1862 Rocket 3.4 13:12:44 68° NW 13:13:14 78° W 13:17:42 10° S
STARLINK-70 3.6 13:14:38 68° S 13:14:38 68° S 13:18:22 10° SE
STARLINK-68 3.6 13:16:18 63° SSW 13:16:18 63° SSW 13:20:01 10° SE
STARLINK-58 3.5 13:17:47 65° SSW 13:17:47 65° SSW 13:21:37 10° SE
STARLINK-62 3.6 13:19:29 60° SW 13:19:29 60° SW 13:23:18 10° SE
STARLINK-63 3.6 13:20:57 61° SW 13:20:57 61° SW 13:24:53 10° SE
Cosmos 1371 Rocket 4.0 13:20:58 26° SW 13:23:41 53° WNW 13:28:48 10° N
STARLINK-72 3.5 13:24:00 59° SW 13:24:07 60° SW 13:28:04 10° SE
GEOS 3 Rocket 3.5 13:20:06 10° SSE 13:25:09 69° WSW 13:27:10 37° NW
MOS 1-B 4.3 13:20:42 10° NNE 13:26:31 86° ESE 13:32:17 10° SSW
Nadezhda 4 Rocket 3.8 13:20:23 10° N 13:26:37 79° W 13:32:44 10° S
Cosmos 614 Rocket 3.8 13:24:02 29° NNW 13:26:40 78° WSW 13:31:45 10° SSE
STARLINK-59 3.7 13:27:18 52° WSW 13:27:30 52° SW 13:31:24 10° SSE
STARLINK-55 3.8 13:30:29 47° WSW 13:30:48 49° SW 13:34:40 10° SSE
Cosmos 407 Rocket 3.4 13:27:31 23° NNW 13:30:51 76° WSW 13:36:11 10° S
SL-16 R/B 2.4 13:29:37 35° WNW 13:31:31 48° WSW 13:36:55 10° S
STARLINK-28 3.8 13:32:05 45° WSW 13:32:28 46° SW 13:36:19 10° SSE
Cosmos 1932 4.4 13:27:40 10° SW 13:33:56 70° WNW 13:40:22 10° NNE
STARLINK-53 3.9 13:35:15 41° WSW 13:35:44 43° SW 13:39:34 10° SSE
Cosmos 724 4.5 13:32:00 19° SW 13:36:14 49° NW 13:42:02 10° NNE
Cosmos 1140 Rocket 3.5 13:32:05 14° NNW 13:36:36 83° ENE 13:41:49 10° SSE
BREEZE-M DEB (TANK) 3.8 13:37:00 12° NNE 13:37:00 12° NNE 13:38:01 10° NE
STARLINK-54 4.0 13:36:52 39° WSW 13:37:24 41° SW 13:41:10 10° SSE
Cosmos 1603 4.5 13:32:11 10° NNW 13:37:48 52° ENE 13:43:21 10° SE
Cosmos 1484 Rocket 3.0 13:36:02 10° N 13:39:47 43° WNW 13:43:28 10° SW
METEOR-M 4.1 13:34:57 10° NNE 13:40:20 90° W 13:45:41 10° SSW
Meteor 1-27 Rocket 4.1 13:36:06 16° NNW 13:40:32 45° W 13:46:06 10° SSW
STARLINK-34 4.1 13:40:05 35° WSW 13:40:43 38° SW 13:44:27 10° SSE
PSLV R/B 4.1 13:37:45 10° N 13:41:40 44° WNW 13:45:35 10° SW
STARLINK-81 4.1 13:42:59 34° W 13:43:51 39° SW 13:47:36 10° SSE
STARLINK-24 4.3 13:44:51 31° WSW 13:45:40 34° SW 13:49:19 10° SSE
SKYMED 2 3.5 13:41:43 10° S 13:45:59 61° W 13:49:45 13° NNW
STARLINK-77 4.3 13:46:10 31° W 13:47:09 37° SW 13:50:51 10° SSE
Cosmos 1023 Rocket 4.4 13:44:04 13° NNW 13:48:42 74° WSW 13:53:55 10° S
STARLINK-25 4.3 13:47:45 30° W 13:48:47 35° SW 13:52:27 10° SSE
Cosmos 2026 Rocket 4.3 13:42:58 10° N 13:49:07 69° E 13:55:20 10° SSE
PSLV R/B 2.8 13:50:00 48° N 13:50:00 48° N 13:52:16 10° ENE
STARLINK-79 4.4 13:50:56 27° W 13:52:04 33° SW 13:55:41 10° SSE
STARLINK-78 4.5 13:52:33 26° W 13:53:44 31° SW 13:57:18 10° SSE
SJ-12 4.2 13:50:27 10° N 13:54:22 43° WNW 13:58:16 10° SW
Meteor 1-20 Rocket 4.2 13:49:38 10° SSW 13:55:27 74° W 14:01:19 10° N
Cosmos 1634 Rocket 3.9 13:53:05 10° S 13:59:18 77° W 14:05:30 10° N
Meteor 1-18 Rocket 4.3 13:58:33 10° N 14:04:07 78° E 14:09:41 10° SSE
Cosmos 1346 Rocket 3.1 14:03:23 10° S 14:07:12 66° E 14:11:03 10° NNE
Lacrosse 5 3.4 14:09:41 15° W 14:11:38 18° WSW 14:15:01 10° SSW
Cosmos 1627 Rocket 4.5 14:05:38 10° N 14:11:50 73° W 14:18:07 10° S
SMAP 3.9 14:11:00 10° NNE 14:15:35 55° E 14:20:08 10° S
Okean 1-7 3.2 14:13:23 10° NNW 14:17:39 50° W 14:21:53 10° SSW
Cosmos 44 4.3 14:15:13 10° S 14:19:54 50° ESE 14:24:23 10° NE
Cosmos 2263 Rocket 2.3 14:14:35 10° SW 14:20:00 51° WNW 14:25:26 10° NNE
Cosmos 676 Rocket 4.3 14:16:58 10° NNW 14:22:01 49° WSW 14:27:05 10° S
BREEZE-M DEB (TANK) 4.4 14:14:09 10° W 14:22:15 29° NNW 14:25:27 10° NNE
Starlink Launch 2 trailer 4.4 14:20:31 10° NNW 14:22:27 20° NE 14:24:22 10° E
ADEOS Rocket 4.0 14:15:27 10° SSE 14:22:31 57° ENE 14:28:54 10° N
ALOS 3.0 14:18:47 10° N 14:22:51 30° WNW 14:26:53 10° SW
Cosmos 2221 Rocket 3.6 14:24:43 10° N 14:29:08 85° E 14:33:33 10° S
H-2A R/B 2.8 14:25:45 10° NNE 14:29:29 84° ESE 14:33:15 10° S
Cosmos 1092 Rocket 4.5 14:25:10 10° NNW 14:30:43 37° W 14:36:15 10° SSW
CZ-4C R/B 3.6 14:25:47 10° NW 14:32:48 40° WSW 14:40:23 10° S
IRS-1C Rocket 4.2 14:28:33 10° NNE 14:33:50 85° ESE 14:39:05 10° SSW
Cosmos 1461 3.3 14:29:58 10° NW 14:34:07 50° WSW 14:38:23 10° S
COSMO-SKYMED 1 4.1 14:31:19 10° SW 14:34:12 17° W 14:37:05 10° NW
Okean O Rocket 2.6 14:37:13 10° NNW 14:40:49 25° WNW 14:44:25 10° SW
Helios 1A Rocket 4.0 14:39:17 10° NNW 14:42:29 23° WNW 14:45:40 10° WSW
Okean 1 4.0 14:39:57 10° NNW 14:43:32 33° W 14:47:06 10° SSW
CZ-4B R/B 3.8 14:39:09 10° N 14:44:09 35° WNW 14:49:10 10° SW
